Theta_e
317 316 316 315 314 313 313 311 310 309 308 307 307 307 305 304 300 298 298 301 302 305 303 302 302 301 301 300 300 298 297 296 294 293 292 292 292 294 297 300 304 305 306 304 303 301 300 301 300 299 299 299 299 298 297 296 296 296 295 295 296 297 298 298 298 296 295 295 295 295 294 294 294 294
315 314 314 314 313 313 312 312 312 311 309 307 306 306 305 305 302 301 298 299 303 304 304 303 303 298 300 299 299 297 295 294 293 293 292 292 292 293 295 298 300 302 304 304 301 300 300 299 298 297 298 297 297 297 296 296 295 295 295 296 297 298 298 297 295 294 293 293 293 293 293 293 293 293
313 312 312 312 312 312 312 312 311 310 309 308 308 307 306 305 304 303 301 297 301 306 304 301 302 300 298 297 296 295 294 293 292 293 292 292 291 291 292 294 297 299 301 303 300 300 299 298 297 297 297 295 296 296 295 295 294 295 295 297 297 297 296 294 293 292 292 292 292 292 292 291 292 293
311 310 310 310 311 312 311 310 309 310 310 310 309 307 306 305 304 303 301 298 298 304 304 305 300 299 295 295 293 293 293 293 291 293 292 292 290 290 291 292 295 297 299 302 300 298 298 298 298 297 296 295 296 295 294 294 295 295 295 296 296 295 293 292 291 291 291 290 290 290 290 290 291 291
309 308 308 308 309 310 309 309 308 308 308 308 307 307 306 306 305 303 299 297 297 301 300 301 298 296 295 292 293 291 291 291 291 291 292 291 290 290 290 291 293 295 298 301 299 298 297 297 297 296 294 294 294 294 294 294 294 294 294 294 295 293 291 291 290 290 289 289 289 289 289 290 290 290
306 307 306 306 307 307 307 307 305 305 305 305 304 304 304 304 303 302 299 298 298 297 301 297 295 294 294 292 291 291 290 289 289 289 290 290 290 289 289 290 292 295 298 300 297 297 297 296 295 294 293 293 293 294 294 293 294 294 293 292 291 291 290 290 289 288 288 288 288 288 288 288 289 289
304 303 304 304 304 305 303 302 302 302 302 302 302 301 300 300 300 300 299 298 296 297 298 301 296 292 290 291 292 290 291 290 289 288 289 289 289 288 288 289 290 294 296 298 298 297 296 295 294 293 293 293 293 293 293 293 293 293 292 290 289 288 287 288 288 287 287 287 287 286 287 287 288 287
302 301 300 300 301 301 300 300 300 301 300 300 300 299 299 298 298 298 298 298 297 297 296 298 297 294 289 290 291 290 290 289 288 288 288 288 287 286 287 287 288 291 295 296 296 296 295 294 293 293 292 293 293 293 293 292 291 291 289 288 287 287 286 287 286 286 286 285 286 286 286 286 286 286
300 300 299 299 299 299 298 298 298 299 298 298 298 298 298 297 297 297 297 297 297 296 295 296 294 290 290 289 288 288 286 286 286 287 286 286 285 285 286 287 289 292 294 295 295 294 293 293 293 292 292 293 292 292 292 291 290 288 287 286 286 286 286 285 285 284 284 284 283 284 285 285 285 285
299 299 299 299 299 298 298 298 298 298 297 297 297 296 296 297 297 296 296 297 296 296 295 294 294 288 287 286 286 287 286 285 283 283 284 284 284 285 285 287 288 290 290 290 291 291 291 291 292 292 292 292 292 291 290 289 288 286 286 285 285 285 285 285 284 283 283 283 283 283 283 283 284 284
298 298 298 297 298 297 298 298 297 297 296 296 295 295 296 296 296 295 296 296 295 294 293 293 294 291 287 287 285 286 286 285 284 282 281 281 283 284 285 285 286 287 287 289 290 288 288 290 290 291 291 291 291 290 289 287 286 285 285 285 285 285 284 284 283 283 282 282 282 282 282 282 283 283
296 296 296 297 297 297 297 297 297 297 296 296 295 296 295 296 295 295 294 294 293 292 292 292 292 290 286 285 285 285 284 283 282 283 282 280 280 282 284 285 284 285 285 285 286 288 289 289 289 290 289 290 290 289 287 285 284 283 284 284 284 284 283 283 282 282 281 281 281 281 281 281 281 283
296 296 296 296 297 296 293 292 293 294 295 296 295 295 295 294 293 293 293 293 292 292 291 291 291 288 285 284 282 281 281 281 281 282 283 281 281 282 282 284 285 285 284 284 285 285 286 285 286 286 286 287 288 286 284 283 283 283 284 284 283 283 283 282 281 281 281 280 280 280 280 280 281 281
295 295 295 296 291 290 290 290 291 292 292 292 294 296 295 293 292 292 291 291 292 291 290 290 290 286 285 284 283 282 282 283 283 282 281 280 281 281 281 282 283 284 284 283 283 283 285 284 284 284 284 285 284 282 281 281 282 283 284 283 282 282 281 281 281 280 280 279 280 280 280 280 280 280
293 294 295 295 293 291 290 291 290 291 292 292 292 292 292 293 293 291 290 291 291 290 290 290 290 288 287 286 284 284 283 283 282 282 282 281 280 279 278 277 280 284 284 282 281 281 283 283 281 281 281 281 281 282 281 282 282 283 283 282 282 281 281 280 280 280 279 279 279 279 279 279 279 279
293 294 294 294 295 295 294 294 294 292 291 291 291 291 292 292 292 293 292 291 290 290 289 289 289 289 288 287 284 283 283 282 282 282 282 281 280 279 279 279 277 282 284 282 280 279 281 282 281 279 279 279 280 281 282 283 283 282 282 281 281 280 280 280 279 279 278 278 278 278 278 279 279 279
293 293 293 293 293 294 290 290 292 293 293 291 290 290 290 290 291 292 293 293 291 292 290 289 289 289 288 287 285 284 283 284 281 282 281 281 280 280 280 280 280 281 284 282 279 277 279 280 279 277 277 278 279 280 282 282 282 282 281 280 280 279 279 279 278 278 278 278 278 278 278 278 278 278
292 293 293 292 292 293 293 293 292 292 291 292 292 291 291 291 290 290 290 291 290 290 291 290 289 290 289 288 287 285 285 283 281 281 280 281 281 281 281 282 281 282 284 281 279 276 278 279 277 275 276 277 279 280 281 282 281 281 280 280 279 278 278 278 277 277 277 277 277 277 277 277 277 278
292 292 292 292 292 292 292 293 292 291 291 290 289 289 288 289 290 289 290 290 290 290 290 290 290 290 289 289 286 285 285 284 284 283 282 282 282 282 281 281 281 281 283 282 280 275 277 279 276 274 275 276 277 279 281 281 281 280 280 279 278 278 277 277 277 277 277 276 276 276 277 277 277 277
292 292 292 292 291 291 291 291 291 291 290 289 288 288 288 288 288 288 289 290 291 290 290 290 289 290 288 288 285 285 285 285 285 285 284 284 282 280 279 276 278 278 282 282 281 276 276 279 275 273 275 275 276 278 278 279 280 279 279 278 277 277 276 276 276 276 276 276 276 276 276 276 276 276
291 292 292 292 291 291 291 290 291 292 290 288 287 287 287 287 287 288 288 289 290 290 291 291 291 290 289 289 288 288 288 286 286 284 282 280 281 279 276 276 276 277 278 279 279 277 274 276 274 272 273 274 273 275 276 277 279 278 277 276 276 276 276 275 275 275 275 275 275 275 275 275 275 275
290 291 288 288 291 290 290 290 291 291 290 288 287 287 286 286 286 286 287 286 287 289 289 290 289 289 288 288 288 288 288 287 286 283 280 281 281 279 277 275 276 275 277 278 279 276 274 274 273 270 270 272 272 273 274 276 276 276 275 275 275 274 274 274 274 274 274 274 274 274 275 274 274 273
290 290 289 288 288 289 289 290 291 291 289 288 287 287 286 285 285 286 287 286 285 286 285 285 285 285 286 286 286 286 287 287 285 284 283 283 281 279 278 276 274 273 275 277 279 273 272 273 273 271 270 269 270 271 272 273 273 273 272 272 272 272 272 272 272 272 272 273 273 273 273 274 274 272
287 289 289 290 290 290 290 290 291 290 290 288 287 287 286 285 285 287 286 285 286 285 285 284 285 285 285 285 285 285 285 285 285 285 284 283 283 281 278 276 276 275 275 277 279 274 272 273 272 274 273 271 267 268 270 271 271 272 272 271 271 271 270 271 271 271 271 272 272 272 272 273 273 271
286 287 288 289 290 290 290 290 290 290 290 289 288 287 286 286 287 287 285 285 285 285 285 284 284 284 284 284 284 284 283 283 284 284 284 284 284 281 278 277 277 273 275 278 278 274 271 272 270 271 270 270 269 267 269 270 271 271 271 271 270 270 270 270 270 270 270 270 270 271 271 272 272 271
286 287 288 288 289 289 289 289 289 289 289 289 288 287 289 289 288 286 285 285 285 284 284 283 282 281 279 277 277 277 276 277 278 278 277 276 276 277 279 279 275 273 273 277 278 273 271 270 271 270 270 269 269 269 267 268 270 270 270 270 270 269 269 269 269 269 269 269 269 270 270 271 270 271
286 287 287 288 287 288 287 288 288 288 289 288 287 289 289 288 288 286 285 284 284 282 282 281 279 277 276 275 273 272 271 272 273 273 273 272 271 270 271 272 274 275 275 274 274 274 273 270 271 271 269 270 268 268 268 268 267 269 268 269 269 269 269 269 268 268 268 268 268 269 269 269 269 270
287 286 287 287 288 288 287 287 287 288 287 287 288 288 289 288 287 285 284 282 282 282 281 279 277 275 275 273 271 270 269 268 269 269 269 269 268 267 267 268 269 270 270 271 272 272 272 269 269 270 271 270 268 268 267 268 268 268 267 269 268 268 268 268 267 267 268 268 268 268 268 267 268 268
286 286 287 287 287 287 287 287 287 286 286 287 287 287 288 286 285 283 282 282 281 280 279 277 274 272 272 270 269 268 267 267 267 266 266 266 266 266 265 265 265 265 267 268 269 270 270 270 269 269 270 271 270 269 268 267 267 267 268 266 266 266 267 267 267 266 266 267 267 267 267 267 266 267
285 286 286 286 286 286 286 285 285 284 285 286 286 286 286 285 283 282 282 281 280 278 276 274 271 269 268 268 269 270 270 268 267 267 268 268 268 268 267 266 264 264 264 265 267 269 269 269 269 269 268 268 269 268 267 266 266 266 266 266 267 267 267 266 267 266 266 266 266 266 267 267 266 266
286 286 286 285 286 285 285 285 285 284 285 285 285 285 285 283 283 282 281 281 279 276 273 271 269 269 269 270 270 270 269 268 269 269 268 268 267 267 266 265 263 263 263 264 264 266 268 268 268 268 266 265 266 266 267 267 266 265 265 266 265 264 266 266 266 266 266 265 265 266 266 266 266 267
285 285 285 285 284 284 284 284 284 284 284 285 285 283 283 282 282 282 282 280 277 274 271 270 269 269 270 269 269 269 268 268 268 268 268 267 266 266 266 264 262 262 263 263 263 263 264 266 267 268 267 266 264 263 264 265 265 266 265 265 265 265 266 264 265 265 265 264 264 264 265 265 265 266
285 284 283 283 283 283 282 282 282 283 284 283 283 282 281 281 281 280 279 276 273 271 270 270 270 270 269 268 267 267 267 267 267 268 267 267 267 267 268 265 263 262 262 261 262 262 263 262 263 265 266 266 266 264 263 263 264 265 264 265 264 264 265 265 265 264 265 263 263 263 263 265 265 266
283 282 282 282 282 281 282 281 282 282 281 280 280 280 281 280 279 278 277 273 272 271 271 271 271 270 268 267 267 266 265 266 266 268 268 266 267 267 265 264 263 264 263 262 262 262 261 262 262 262 262 261 262 264 265 265 264 264 264 264 264 263 265 264 264 264 263 263 262 261 262 263 265 266
282 281 280 280 281 281 281 281 281 280 280 279 279 278 279 279 278 276 274 273 273 272 272 271 271 270 269 268 267 265 265 265 266 266 266 267 267 267 266 264 263 263 263 262 261 262 262 262 263 262 262 262 262 262 263 264 265 264 263 263 263 263 263 264 263 263 263 262 262 261 261 262 263 266
282 281 280 280 280 281 281 280 279 279 279 279 278 278 277 276 275 274 273 273 273 272 272 271 270 270 269 268 267 266 265 265 265 265 265 266 266 266 265 264 263 263 263 262 262 262 263 263 264 264 264 264 265 264 263 266 265 264 264 263 263 262 263 262 262 262 261 261 262 261 260 260 262 264
281 281 280 280 280 280 279 278 278 278 278 278 278 277 276 274 274 274 274 274 273 272 272 271 271 270 269 268 266 265 265 265 264 265 265 265 265 265 263 262 262 262 263 262 262 261 263 263 265 266 266 265 264 265 264 263 264 266 263 264 263 263 262 262 261 261 262 262 261 261 261 261 261 263
281 280 279 279 279 279 279 278 278 278 277 277 278 277 274 272 272 272 273 273 272 271 271 271 270 269 269 267 265 265 265 265 265 265 264 264 264 264 263 262 261 262 261 260 261 261 263 263 264 265 266 266 265 264 262 262 260 263 266 264 263 263 262 261 261 261 261 262 261 262 262 261 262 263
281 279 279 278 278 278 278 278 277 277 277 276 275 273 271 271 271 271 271 271 271 271 270 270 269 268 267 266 266 265 265 264 264 264 263 264 264 263 262 261 261 260 260 259 259 260 261 262 264 264 265 265 265 265 265 263 262 263 266 266 263 261 262 262 260 261 261 260 261 262 263 264 265 267
279 279 279 279 278 278 278 277 276 277 276 274 273 272 271 271 271 271 271 270 270 270 269 268 268 268 267 266 266 266 265 265 264 263 263 264 263 262 262 261 261 260 260 259 259 260 260 262 263 263 264 262 260 260 261 261 261 261 262 265 266 264 262 262 261 260 260 261 261 260 260 261 261 263
277 277 277 277 277 277 277 276 276 275 273 272 272 272 271 271 271 270 269 269 269 268 268 268 267 267 267 267 266 266 265 264 264 263 262 262 261 261 261 260 260 261 261 260 260 260 260 261 259 261 258 258 258 260 261 261 261 261 261 262 264 265 265 265 263 261 260 261 260 259 259 259 260 261
277 277 276 276 276 277 276 275 274 273 271 271 271 271 270 270 270 270 269 269 268 267 266 266 266 266 265 266 266 266 265 264 263 261 261 261 260 260 259 261 261 261 262 261 261 261 258 257 258 258 258 259 260 260 260 261 261 262 262 261 262 263 264 264 265 265 263 261 259 258 259 260 262 260
275 275 275 275 275 275 274 273 272 271 271 270 270 270 269 269 269 268 266 267 267 266 266 265 266 265 265 265 266 266 265 263 262 261 260 261 260 260 260 261 262 262 262 262 260 258 257 257 258 258 259 259 259 260 260 261 260 260 260 260 260 260 260 262 263 264 264 265 265 263 261 260 259 257
275 274 274 273 273 273 273 272 271 271 271 270 270 269 269 269 268 267 266 266 266 266 265 265 264 264 264 265 265 265 263 262 261 260 261 261 261 262 261 261 260 261 261 259 258 258 258 258 258 259 259 259 259 259 259 258 259 259 259 259 258 258 258 260 260 261 263 264 264 265 266 267 267 267
273 273 272 272 272 272 272 271 271 270 270 269 269 269 268 268 266 266 266 266 265 265 264 264 263 263 263 263 263 262 261 261 261 261 261 261 261 261 261 260 259 259 260 259 258 257 257 257 258 258 258 258 258 258 258 258 258 258 257 256 256 257 257 258 257 257 258 259 262 263 264 265 266 267
Wind_Speed
11 12 14 14 13 12 11 9 8 8 8 8 8 8 11 10 13 15 13 16 12 10 11 8 8 12 9 9 8 9 9 12 11 7 8 9 8 13 20 23 23 26 24 18 19 20 20 20 20 19 18 17 17 16 15 13 11 8 6 3 1 7 9 11 10 6 3 5 8 9 10 10 10 11
8 10 10 11 11 9 7 11 10 7 8 8 9 9 9 9 15 13 14 20 7 9 6 10 4 6 8 8 7 6 6 11 11 7 8 8 9 12 17 21 22 22 23 21 17 18 19 19 18 17 17 17 16 15 14 11 9 6 4 4 7 10 11 9 3 2 4 7 8 8 8 9 10 11
10 11 12 11 10 10 12 11 10 10 10 9 8 11 9 11 15 15 14 15 17 6 12 4 6 3 6 4 4 4 4 7 11 8 8 8 13 14 13 18 21 23 22 22 18 19 21 20 20 19 19 18 16 14 12 9 7 6 6 8 10 9 8 4 3 4 5 7 7 7 7 7 9 10
11 13 14 12 11 11 9 9 9 9 10 10 11 11 11 11 10 11 11 15 25 12 9 6 3 5 4 4 6 5 3 5 12 7 8 8 11 9 8 15 20 22 23 22 21 21 19 20 21 21 19 17 15 12 9 8 8 9 9 10 10 8 5 3 2 4 5 4 4 5 6 7 8 9
13 13 14 14 12 11 13 12 11 11 11 12 12 11 12 13 12 11 12 16 20 15 4 9 6 3 5 5 6 6 5 5 7 9 6 8 8 7 8 9 17 23 23 22 23 22 19 20 21 20 17 15 13 11 10 11 11 10 10 10 9 7 5 4 5 5 4 3 3 4 6 6 8 9
10 11 12 13 12 11 12 12 10 9 9 8 9 9 9 12 11 11 13 16 16 22 10 3 1 3 5 5 4 8 8 7 6 8 8 8 9 8 8 9 10 21 18 17 24 23 21 20 20 19 17 15 13 12 13 12 12 12 11 9 8 7 5 4 4 3 1 2 3 4 5 6 8 8
11 11 12 13 11 10 11 12 11 11 12 11 12 13 10 11 12 10 13 13 15 18 17 10 7 6 5 9 7 8 5 3 6 8 9 8 7 7 9 9 7 12 16 16 21 22 22 22 21 18 16 14 15 14 14 14 13 13 12 12 10 8 5 5 5 3 0 3 3 4 5 6 7 8
12 11 12 13 11 11 13 13 11 11 11 11 11 12 11 12 13 11 11 13 14 13 15 13 9 5 5 6 3 3 3 6 7 7 5 5 5 4 6 6 4 9 15 17 19 21 22 22 20 17 16 16 16 16 15 14 12 12 13 12 10 8 7 6 4 3 4 4 4 4 4 5 7 8
11 11 12 12 11 11 13 13 12 11 12 11 10 12 11 10 11 10 10 11 11 12 15 15 6 2 4 1 2 5 7 5 5 3 4 5 5 3 3 3 6 12 19 17 20 23 22 19 17 17 17 17 16 15 14 14 15 15 13 11 9 8 7 6 5 5 5 4 3 3 4 6 7 8
11 13 12 12 11 11 13 14 12 11 12 11 12 13 12 11 10 11 10 9 10 12 15 14 11 4 5 3 4 7 6 8 7 6 4 4 4 7 7 7 7 8 10 11 13 18 17 17 18 17 16 16 16 16 16 17 16 14 12 10 8 8 8 7 6 5 5 5 3 2 4 6 7 8
11 12 12 12 12 12 13 13 13 11 12 11 13 13 12 12 11 12 11 11 11 12 13 12 12 8 5 7 6 7 5 4 5 9 8 7 7 5 8 7 5 5 8 10 13 10 10 13 12 14 16 16 17 17 18 16 15 13 12 10 10 9 8 7 7 6 5 3 2 2 3 5 7 9
11 12 12 12 12 13 13 12 12 12 12 11 13 11 11 12 12 12 10 9 10 11 11 12 11 7 5 4 2 5 7 7 5 8 9 12 10 8 7 9 9 8 8 8 8 11 14 13 14 16 16 18 18 18 17 16 13 13 11 11 10 9 8 8 8 6 4 2 1 2 3 5 7 9
12 12 12 12 12 13 15 17 17 16 15 12 12 12 10 11 11 11 9 9 9 9 10 11 8 7 6 7 8 10 11 14 13 11 6 8 9 9 9 8 7 8 10 7 7 7 8 8 8 9 8 9 14 16 16 12 13 12 12 11 11 9 9 8 7 5 3 1 1 2 4 6 7 8
11 12 11 12 16 17 18 18 19 20 21 21 17 14 10 10 10 10 10 9 9 9 10 11 9 9 9 10 11 11 11 6 6 9 8 9 8 7 5 4 4 7 10 9 9 8 6 8 8 8 8 8 9 10 8 7 8 10 12 11 10 10 9 8 6 4 2 1 2 3 5 6 7 9
13 11 12 12 12 13 15 16 19 20 22 21 22 24 22 17 13 10 11 10 9 9 11 10 10 11 12 11 9 12 8 9 10 11 12 9 11 12 13 12 5 5 10 9 9 7 7 8 10 8 8 7 7 7 7 12 12 12 12 11 11 10 8 7 5 3 1 1 2 4 5 6 7 9
13 13 12 12 10 10 12 12 13 15 19 21 22 23 22 22 22 20 14 11 9 9 10 11 12 10 12 9 9 8 8 9 8 8 9 12 13 12 10 9 10 9 10 10 9 7 6 5 9 8 6 6 7 7 11 14 13 13 12 11 11 9 8 6 5 3 1 1 3 4 5 6 8 9
13 13 12 12 10 10 14 13 13 13 14 16 20 21 22 21 21 20 22 20 16 10 12 13 13 13 10 10 10 12 13 11 10 10 9 8 8 9 10 8 7 10 8 8 8 8 7 7 8 8 6 6 6 8 12 14 13 12 11 10 10 8 7 5 4 2 2 3 4 4 5 6 8 10
13 13 13 12 12 11 11 11 11 11 13 13 12 12 12 12 14 18 20 20 22 19 15 13 14 11 9 12 9 12 12 14 13 12 11 12 11 8 9 6 8 8 10 10 8 6 7 7 8 7 6 6 6 8 10 13 12 11 11 10 8 7 6 5 4 2 3 4 4 4 6 7 8 10
13 13 12 12 13 13 12 10 11 11 12 11 12 12 12 12 12 11 12 12 12 13 13 14 13 12 10 9 6 10 11 14 14 14 16 16 11 8 9 9 7 7 6 8 11 6 8 7 7 6 7 6 6 7 10 11 11 11 10 9 7 7 6 5 4 4 5 5 4 5 6 8 9 10
13 12 11 11 12 13 13 13 15 15 13 11 13 14 13 12 11 11 11 13 14 13 11 11 12 10 5 7 9 11 11 10 7 6 7 8 9 10 10 7 7 6 5 5 8 7 7 7 7 7 6 7 6 7 7 9 10 10 10 8 8 7 6 4 5 6 5 5 5 6 7 8 9 11
13 13 13 13 12 12 12 13 16 17 16 12 14 14 14 12 11 11 9 12 16 17 17 18 15 10 10 14 16 18 19 13 11 10 10 9 10 11 9 7 8 7 7 2 3 9 9 7 8 8 5 6 6 6 6 6 9 10 9 8 7 6 5 5 6 6 5 6 7 7 8 8 10 11
12 14 15 14 13 13 13 15 18 18 15 12 13 13 13 15 12 10 9 5 8 13 15 14 11 11 13 15 19 21 23 22 16 14 13 13 10 10 11 9 9 6 7 5 6 9 7 8 8 8 5 5 3 4 5 6 8 10 8 7 6 5 5 6 7 6 6 6 7 7 8 8 10 6
11 11 11 14 15 15 15 20 18 18 15 12 12 12 12 13 13 12 7 7 7 6 5 4 6 7 12 11 10 14 23 22 18 12 13 10 9 10 9 8 10 7 3 6 6 7 5 8 7 8 6 3 3 2 4 5 5 5 4 4 4 5 5 6 6 5 5 6 7 7 8 8 9 5
11 11 11 12 13 17 19 19 21 21 20 14 11 10 9 11 14 10 6 6 6 5 6 5 5 6 7 7 8 10 12 13 11 9 9 13 12 11 9 9 9 7 6 7 6 7 4 5 8 4 2 5 4 4 4 5 5 4 4 3 3 4 4 4 3 3 3 5 6 6 7 8 9 5
12 11 11 11 12 14 16 16 17 19 20 17 13 11 10 11 11 4 4 6 7 5 5 6 6 7 6 7 6 7 7 7 6 6 6 6 6 10 12 9 7 4 4 7 11 7 5 6 5 4 3 4 5 5 5 5 5 5 4 3 2 2 2 1 1 0 1 2 3 5 6 8 9 6
11 12 11 11 11 13 13 14 16 19 19 20 12 12 17 18 17 5 4 5 6 6 5 6 5 6 6 7 8 7 7 7 8 8 10 9 11 8 4 7 9 8 6 9 13 6 8 5 6 7 4 5 3 4 5 5 5 4 4 2 2 2 2 0 0 0 1 2 2 4 6 7 6 7
12 11 11 12 14 13 14 17 17 18 20 17 12 19 19 18 16 8 5 6 6 6 6 6 5 5 7 8 7 7 7 7 10 10 11 11 9 9 9 11 6 7 8 7 5 5 6 5 4 7 6 5 6 3 4 4 3 3 2 3 2 2 1 1 0 0 2 2 2 5 5 4 4 6
13 13 12 12 15 16 17 17 18 18 18 13 17 18 18 15 12 7 6 7 7 7 7 7 5 6 8 8 7 6 7 6 9 10 10 11 11 10 10 9 11 9 8 6 5 4 6 7 5 2 4 6 6 6 5 4 4 4 3 4 3 1 2 1 1 0 1 2 3 3 4 4 4 4
12 15 19 19 20 18 16 17 19 17 16 18 19 18 16 10 7 7 7 7 7 9 8 6 5 6 5 5 8 8 9 10 9 10 9 10 10 10 11 10 9 9 8 6 6 6 5 6 6 4 3 2 3 3 4 4 4 3 4 3 3 3 2 1 1 1 1 3 3 4 4 4 4 4
24 23 22 23 20 17 14 10 8 8 8 12 13 14 11 7 6 6 6 7 7 7 7 8 7 6 7 8 7 8 7 7 7 8 9 9 7 6 9 11 10 9 9 7 7 6 6 6 5 5 5 3 3 5 5 6 3 3 3 3 2 2 2 2 2 0 1 2 3 4 4 3 4 4
12 12 12 11 13 12 14 13 13 11 11 10 8 6 6 6 7 7 7 8 7 8 9 9 6 7 6 7 7 6 7 7 4 5 8 9 7 7 7 10 8 7 7 7 7 7 7 6 6 5 5 5 4 4 3 3 4 4 3 3 2 2 2 2 1 1 0 2 3 4 4 3 4 4
11 12 12 12 9 8 8 8 7 7 7 7 5 4 6 5 4 6 8 8 8 8 7 8 8 7 6 8 10 8 6 6 6 3 5 8 7 6 8 8 6 6 5 6 6 7 7 6 4 3 4 4 5 4 3 2 3 4 4 3 2 1 1 1 1 0 1 2 3 3 4 4 4 4
13 11 10 9 9 8 8 8 7 6 6 4 5 6 7 7 7 7 7 9 8 8 9 11 11 8 7 7 6 6 8 6 6 4 6 6 9 5 5 7 8 7 7 5 4 4 4 4 6 5 3 3 5 6 6 4 3 2 2 2 2 1 1 2 2 1 1 2 2 3 5 5 4 4
13 10 9 8 8 8 7 7 7 6 3 4 4 5 8 6 5 6 6 7 8 8 9 9 7 9 8 9 7 6 7 6 5 5 7 5 5 6 6 7 6 5 6 7 6 5 4 3 3 4 4 5 4 1 2 1 3 3 2 2 2 2 1 2 1 1 1 2 2 3 4 5 5 4
10 8 8 8 7 7 7 7 5 4 4 5 6 5 5 5 6 6 6 6 7 7 7 7 8 9 8 9 7 8 7 7 6 5 4 5 4 5 6 7 7 6 7 6 6 5 5 5 5 5 3 3 3 2 3 2 1 4 3 2 2 2 1 1 1 1 1 2 1 2 4 5 6 4
11 8 7 7 7 7 6 4 3 4 5 5 6 7 6 5 5 6 6 8 8 8 7 8 7 8 7 7 7 7 7 6 7 6 6 4 4 4 4 5 6 6 6 6 6 5 4 5 5 5 5 4 3 2 1 3 2 0 3 3 3 2 1 1 1 1 1 1 1 1 3 4 5 5
10 8 7 7 6 5 4 3 4 4 4 6 5 4 6 6 6 5 6 8 8 7 7 7 8 6 7 7 7 6 6 6 7 6 5 5 4 5 6 5 4 6 6 5 4 4 3 4 4 4 4 3 2 2 2 2 4 5 1 2 3 3 2 1 1 1 2 1 2 2 3 5 6 6
8 6 5 5 5 5 4 4 4 5 4 4 6 5 6 6 6 7 7 7 6 6 6 6 6 6 6 6 8 7 5 5 5 6 4 5 6 5 5 6 6 5 5 4 3 3 2 2 3 3 2 3 2 2 2 3 1 5 9 2 2 2 2 1 1 1 1 1 2 3 3 5 6 6
6 5 5 4 4 5 5 5 4 4 5 5 5 6 7 7 6 7 6 5 6 6 6 6 6 5 7 6 5 7 8 7 6 6 5 5 5 6 6 6 6 4 5 4 2 2 1 3 2 1 1 2 2 1 1 3 3 4 7 11 3 1 1 1 1 2 2 3 3 3 5 6 9 14
5 4 4 4 5 5 4 4 3 5 5 4 4 4 6 8 7 7 7 6 6 6 5 5 7 7 6 7 6 5 6 8 7 6 6 6 5 5 5 5 5 6 5 5 4 4 3 2 1 1 1 3 4 3 4 3 3 1 2 6 8 4 2 1 1 2 3 3 3 5 6 5 5 4
4 4 3 3 4 4 4 4 3 3 3 4 5 4 4 4 6 6 5 7 7 7 6 6 6 7 6 7 7 8 7 6 5 5 5 5 4 4 5 6 5 5 5 5 4 3 3 2 6 10 8 4 2 1 1 1 1 3 4 3 6 6 6 5 3 3 4 3 4 5 6 6 5 5
4 4 3 3 3 3 3 3 3 3 4 4 6 6 6 5 5 8 8 7 8 8 5 5 5 5 5 6 6 5 6 7 7 6 5 6 6 5 5 4 5 5 4 4 4 3 5 5 5 5 4 3 2 2 2 2 1 1 2 3 2 3 4 7 8 8 5 4 4 5 5 5 3 5
3 3 3 3 2 3 2 3 3 4 4 4 5 5 6 6 6 6 3 6 7 6 5 4 4 5 5 5 6 5 6 6 6 6 6 5 6 7 6 5 4 4 3 4 5 5 4 4 4 3 2 2 1 2 1 1 1 0 0 1 1 0 2 6 8 9 10 12 12 10 7 5 4 4
3 2 2 1 2 2 3 3 4 4 4 4 5 5 4 6 6 6 6 6 5 5 5 5 5 5 5 5 5 4 4 5 6 6 6 6 5 5 5 5 5 4 4 5 5 4 4 3 3 3 3 2 2 2 1 1 1 1 1 0 2 2 4 3 3 5 7 9 11 12 15 17 16 17
2 2 2 2 2 2 2 3 4 4 4 5 5 6 5 5 5 6 6 5 4 5 5 5 5 5 5 5 6 5 4 5 5 4 5 5 4 4 4 5 5 5 4 5 6 5 4 3 2 1 1 1 1 1 0 0 0 0 1 1 2 2 3 3 5 5 3 2 4 6 7 10 12 15
Wind_Direction
252 249 246 245 249 246 242 233 216 223 225 229 230 222 236 239 255 275 280 274 257 255 190 237 207 198 210 216 221 219 209 222 211 190 200 206 212 215 220 227 228 228 224 205 180 174 171 169 165 161 165 164 161 145 127 118 115 109 95 91 214 250 255 264 273 277 301 313 308 311 317 322 326 329
260 259 258 254 254 247 228 245 241 235 229 228 226 224 222 222 241 252 270 279 249 258 198 219 208 178 211 209 213 206 204 218 202 193 197 203 211 210 214 221 224 224 225 212 199 177 170 162 158 160 150 146 144 135 130 124 117 125 154 204 229 237 243 250 258 273 295 293 300 312 318 329 333 323
259 259 258 253 251 252 255 253 244 238 234 233 231 233 225 225 232 247 254 266 270 171 262 203 236 186 204 201 212 196 212 200 200 201 203 205 215 211 217 219 222 223 225 208 195 184 174 162 162 157 152 152 144 131 124 126 141 168 202 222 232 236 242 241 225 269 281 287 300 311 326 333 326 327
257 256 257 253 252 253 244 242 239 240 234 235 239 235 235 233 228 240 247 249 269 254 250 272 208 204 179 191 201 206 183 190 193 203 202 204 206 208 211 220 219 220 223 200 198 193 177 164 159 154 156 152 136 134 143 166 183 196 206 213 213 208 198 175 248 263 271 285 301 321 330 328 330 324
259 259 258 260 255 254 254 255 251 243 238 235 235 230 225 231 224 221 240 255 266 277 172 254 242 178 179 218 200 204 190 188 200 206 200 194 203 201 203 212 218 222 221 194 188 192 180 169 159 157 157 139 141 152 172 184 194 199 205 206 209 166 158 186 225 253 261 294 319 325 334 331 322 322
257 260 261 260 259 251 253 256 252 247 247 242 244 238 232 238 234 216 229 243 251 268 261 226 101 220 197 237 161 202 192 197 179 204 201 203 201 202 201 210 216 220 208 185 179 190 186 169 159 154 142 145 149 173 182 187 191 195 187 177 171 158 153 198 223 230 257 318 340 352 339 321 320 323
263 260 259 262 260 258 256 255 253 251 249 248 245 247 238 241 240 227 226 239 250 260 267 258 241 216 193 217 208 203 205 156 176 194 203 199 198 198 200 208 211 205 194 191 181 190 189 168 158 144 140 153 168 180 190 191 193 192 170 150 147 146 147 191 205 208 90 47 32 357 334 325 325 323
263 260 262 261 257 256 256 256 253 249 246 244 244 245 240 237 239 232 229 231 248 259 272 267 253 231 194 224 200 160 133 178 196 202 190 177 190 182 197 202 190 195 186 195 187 185 171 161 152 146 158 167 174 186 191 183 175 168 150 147 150 149 164 185 171 105 76 53 21 355 332 328 323 324
265 263 260 264 260 255 255 258 251 252 248 244 244 245 242 238 238 237 230 235 238 252 262 274 253 177 224 210 146 162 172 168 169 161 174 181 172 117 118 153 181 187 184 173 175 170 168 159 151 162 169 175 178 183 176 162 155 147 150 148 145 164 175 164 130 106 90 67 40 1 341 323 324 331
266 265 265 263 261 256 254 258 258 252 251 248 244 245 244 240 238 238 238 235 242 248 257 258 261 185 206 183 192 187 166 160 157 151 132 103 131 153 168 173 172 166 166 165 168 170 167 161 165 170 175 176 171 164 157 154 148 150 143 139 152 169 165 139 120 109 91 78 57 5 342 328 334 337
265 261 262 262 258 256 255 257 258 256 254 248 247 244 243 241 238 238 236 233 238 244 253 255 252 246 205 194 200 184 166 158 160 157 152 169 181 181 164 155 153 138 142 147 151 152 147 161 167 174 171 165 163 161 154 147 150 140 137 148 161 165 148 129 113 97 84 75 41 352 339 338 340 337
265 263 261 260 257 254 255 255 258 253 255 252 251 245 239 242 238 240 242 239 239 240 244 247 249 225 202 172 114 137 156 171 183 188 175 173 169 168 164 162 155 152 144 141 147 149 151 156 154 161 162 166 162 154 144 145 140 134 144 155 161 154 134 118 107 100 90 82 30 337 344 346 341 336
266 265 261 259 259 254 255 254 254 254 251 252 256 249 235 239 239 242 242 241 239 243 244 250 243 220 202 192 167 170 184 191 195 185 164 168 162 156 160 169 164 156 149 143 135 138 138 140 151 156 156 160 155 144 139 140 135 143 153 158 155 136 123 113 108 101 103 83 355 341 348 347 340 332
267 267 267 263 258 257 256 255 255 255 254 251 249 255 244 235 237 238 241 240 238 241 245 246 238 221 219 202 195 193 202 170 135 153 165 158 156 140 134 142 174 168 153 144 145 143 144 139 140 144 145 145 135 140 138 142 144 155 160 155 142 126 116 110 110 113 113 62 348 356 355 346 336 331
282 273 269 270 266 260 256 256 255 256 256 254 252 250 248 244 238 238 239 241 235 240 245 247 237 231 231 216 197 203 180 174 172 174 172 158 156 166 165 177 155 193 156 152 139 139 151 143 144 142 135 130 133 145 149 146 145 155 157 147 130 119 112 115 122 125 109 52 5 4 355 340 333 329
281 280 278 272 270 264 261 260 260 256 254 254 254 253 251 248 243 239 236 239 241 234 243 244 237 231 228 218 193 190 163 176 170 168 168 170 171 171 176 173 178 175 161 145 141 136 145 132 135 136 134 126 140 146 149 150 154 156 152 137 123 114 118 126 128 128 110 38 15 8 348 337 334 330
282 282 280 280 271 266 261 259 257 262 264 258 255 254 255 253 249 246 243 239 239 242 239 242 239 228 221 216 203 192 190 172 166 169 174 178 172 179 174 170 138 153 153 120 134 136 148 141 138 128 122 123 128 145 153 159 157 151 141 129 118 120 126 131 130 126 85 44 24 4 344 337 335 331
279 278 279 281 278 272 263 258 259 258 260 263 262 258 253 251 250 248 247 247 244 240 239 238 242 233 212 221 205 188 170 171 175 174 182 179 181 173 175 138 128 134 157 154 130 120 151 148 132 127 120 125 135 150 158 161 153 143 132 124 127 136 140 135 136 109 69 46 24 358 345 340 336 332
275 275 271 270 274 275 271 261 257 260 259 262 261 258 257 252 251 247 243 238 238 238 236 238 241 240 224 221 172 171 176 184 185 186 182 177 167 132 96 88 113 133 161 140 141 137 150 150 126 121 124 127 129 146 153 151 143 134 130 128 138 142 139 135 119 84 61 41 19 360 352 345 338 333
278 274 269 268 270 271 269 269 262 258 260 260 262 261 260 259 254 252 246 244 244 240 235 234 235 238 199 169 162 169 175 174 154 129 114 126 133 134 138 129 136 137 157 160 157 129 143 152 122 124 123 120 127 147 146 139 134 134 132 134 138 140 131 124 92 74 58 34 21 5 359 349 341 332
283 277 273 270 269 272 272 271 269 266 260 258 259 261 262 262 261 260 254 243 246 246 239 237 238 223 178 172 169 171 170 163 154 143 146 159 154 151 143 140 144 154 150 138 120 132 135 145 124 121 117 130 131 133 133 132 137 134 134 137 138 129 117 98 80 68 51 33 19 9 2 352 343 332
282 280 271 267 273 272 272 271 269 268 264 261 260 261 263 263 260 259 259 247 241 243 242 238 219 203 184 177 176 174 171 164 157 159 164 165 154 155 155 143 151 138 152 149 137 128 141 128 121 108 102 98 92 120 120 129 132 131 135 132 114 104 91 81 74 61 45 27 17 13 4 357 347 331
285 283 279 265 260 266 271 273 273 269 265 263 262 261 262 260 261 262 255 238 242 227 205 187 167 181 181 173 167 172 169 162 170 172 160 148 152 155 152 133 129 119 166 171 162 120 139 132 137 138 140 130 99 93 127 150 163 177 174 161 124 93 77 73 70 57 39 24 19 14 8 2 352 331
291 285 283 276 263 263 267 269 271 272 271 267 265 260 249 256 258 265 234 224 224 203 195 176 165 153 151 146 151 160 164 167 162 160 159 166 162 160 144 150 158 151 146 161 171 119 119 137 143 158 109 134 164 162 161 176 182 185 182 182 172 121 91 97 95 85 36 19 19 16 11 3 356 341
288 289 284 283 273 267 265 267 270 275 274 268 264 258 248 246 264 259 198 214 197 178 156 151 148 136 123 122 116 124 125 130 139 133 146 151 161 156 153 142 139 82 91 139 147 112 134 155 129 120 76 65 110 133 174 175 185 186 188 182 155 108 77 72 70 162 110 7 21 18 1 357 357 353
280 278 281 281 278 274 271 271 271 271 272 269 266 259 256 252 255 213 202 175 170 156 150 144 125 116 108 96 102 88 82 78 90 94 84 65 61 59 86 140 133 135 134 152 139 121 121 137 145 132 119 120 127 135 144 175 178 166 162 159 112 89 91 74 248 358 343 346 351 1 343 351 354 346
280 280 278 277 277 275 275 277 274 271 271 272 267 266 262 251 236 196 172 161 158 150 143 135 105 91 105 106 97 94 81 81 91 89 88 79 71 65 59 47 31 91 113 106 99 123 111 111 130 139 145 141 137 147 156 154 164 152 165 143 133 114 142 151 232 321 343 333 328 336 347 355 354 336
279 280 278 280 284 282 279 277 273 273 272 268 271 269 267 245 216 171 159 153 157 148 142 134 107 107 116 104 93 85 103 97 89 89 84 79 73 80 73 60 59 53 63 71 74 82 99 118 121 89 131 147 153 161 155 108 120 152 148 142 141 146 154 149 240 170 309 328 320 346 349 345 346 338
273 275 279 282 283 282 275 273 277 278 274 271 270 269 262 220 173 168 155 158 144 151 145 132 106 99 85 85 105 103 106 104 93 87 75 77 82 87 85 74 62 46 41 37 50 56 88 112 120 121 128 150 143 129 132 143 143 153 149 160 181 166 188 199 156 158 345 326 334 339 337 336 326 326
276 275 275 277 278 277 271 271 265 263 267 267 263 262 235 165 166 152 157 154 157 137 128 127 117 99 108 105 111 115 114 102 102 112 115 109 99 94 95 81 53 41 32 21 36 54 74 95 109 115 108 89 101 122 122 128 139 143 153 197 156 151 151 149 141 113 295 338 330 321 319 316 305 303
281 283 282 279 276 272 272 267 265 265 269 269 260 232 173 154 155 163 166 170 150 132 123 118 96 106 105 110 107 108 109 96 84 91 113 103 103 89 78 89 82 63 36 28 30 33 64 79 94 116 118 112 86 95 113 123 139 154 180 184 188 171 125 140 173 174 341 332 313 302 301 296 296 280
290 290 288 282 275 270 266 264 261 256 254 255 230 158 157 147 130 108 98 85 77 86 94 103 113 116 122 116 123 122 105 96 101 87 92 114 104 100 105 86 89 94 84 52 48 31 26 48 76 96 105 128 129 125 103 130 163 166 165 157 164 112 137 200 206 293 66 321 306 307 303 297 290 293
287 282 276 273 275 272 267 264 259 257 248 224 162 141 136 134 138 141 138 131 123 127 126 134 134 128 113 106 110 113 103 100 101 96 91 79 110 100 77 103 131 136 128 115 86 64 61 48 19 41 69 72 110 132 138 154 181 176 155 147 142 168 170 190 170 216 339 311 310 306 303 299 292 287
282 275 274 272 273 272 267 262 258 247 197 142 138 134 141 138 131 129 128 124 125 132 137 136 131 131 126 130 134 115 109 107 98 99 109 104 104 109 118 119 125 121 118 125 129 127 111 98 91 64 52 42 17 63 288 192 145 148 145 138 168 188 178 147 191 141 233 310 303 305 301 302 297 283
266 258 261 268 266 266 264 260 245 193 165 155 142 133 131 131 130 122 116 127 130 131 128 130 130 138 139 140 135 128 125 123 116 98 81 104 116 116 127 127 130 135 133 130 137 147 146 148 141 121 116 138 151 195 229 292 102 134 138 174 194 193 180 141 144 273 290 289 281 284 295 289 288 279
262 253 258 264 268 268 257 233 189 171 165 161 152 142 134 116 122 133 129 142 139 140 129 128 133 142 133 128 124 118 119 115 120 122 128 127 120 112 98 108 118 124 127 133 141 151 159 158 164 161 152 168 171 146 119 159 189 165 166 160 168 170 188 157 229 235 244 255 270 258 281 287 289 293
262 249 251 260 265 255 231 207 182 180 169 164 161 145 140 128 121 113 127 135 133 128 134 136 142 132 123 117 113 107 116 122 125 127 121 117 110 116 114 110 112 123 125 127 131 145 159 170 188 189 160 149 154 185 131 115 213 217 264 173 152 160 166 222 224 257 255 225 261 252 258 276 283 287
254 248 242 250 247 239 222 204 189 175 169 166 160 120 113 111 112 115 123 136 130 124 134 132 123 117 121 126 128 130 124 110 111 124 129 131 133 133 133 131 135 133 121 118 128 146 165 178 188 192 171 161 166 175 167 149 140 213 195 185 169 141 158 210 254 263 288 284 253 263 273 269 275 287
254 245 238 232 230 220 210 199 186 170 153 147 143 136 129 123 122 127 131 127 134 134 123 121 129 127 130 133 133 138 139 142 142 139 136 144 138 133 131 129 123 115 120 127 131 148 189 189 184 163 155 178 184 150 133 159 158 114 180 181 140 172 263 233 282 299 286 287 293 292 275 267 272 277
252 245 235 222 223 217 202 189 170 171 154 135 126 131 136 139 142 136 139 141 141 135 111 122 133 134 132 142 136 119 122 141 138 138 142 137 129 120 126 131 129 137 133 140 157 175 188 176 131 117 61 63 56 58 58 70 85 110 125 176 184 199 238 294 269 282 289 290 304 301 296 295 289 291
229 227 225 219 217 208 193 176 164 129 101 106 113 110 104 118 133 138 138 146 142 136 126 133 139 150 144 143 150 149 141 138 132 128 115 112 115 127 115 117 126 150 149 161 163 161 153 84 70 77 82 89 105 97 107 169 191 161 172 184 198 204 208 230 258 269 271 282 284 282 286 291 298 302
211 218 213 209 207 198 181 164 118 112 112 119 130 129 126 115 118 129 130 133 131 132 115 131 141 136 133 141 149 147 138 143 140 136 134 132 128 118 131 147 147 162 165 163 156 118 82 90 93 82 90 109 136 166 199 184 190 140 108 124 151 189 242 273 278 265 253 240 248 266 279 288 277 280
210 196 197 197 186 181 152 116 119 121 123 122 121 125 125 124 129 132 111 130 137 139 138 132 133 137 143 147 154 148 134 133 133 134 132 130 135 145 156 166 152 148 131 95 83 86 100 100 114 122 135 146 190 214 209 154 146 147 242 235 183 144 281 269 274 279 269 256 244 238 231 247 281 271
196 189 168 149 165 144 118 125 120 124 124 125 129 127 124 137 144 148 142 138 140 138 137 133 136 142 141 138 122 110 113 126 132 134 145 150 145 141 140 131 122 119 106 108 108 106 104 123 136 147 161 179 173 192 187 163 220 213 253 333 340 327 311 316 304 278 268 256 260 259 255 252 251 257
172 163 153 167 154 135 125 130 138 135 132 136 140 142 138 136 134 141 146 134 120 119 123 137 136 132 126 127 131 128 121 121 122 124 125 127 134 125 120 126 124 122 125 128 123 123 129 131 139 160 175 147 155 185 156 166 233 325 287 321 309 306 296 320 323 321 315 311 233 236 262 270 276 280